Location: Aufkirchen
(47.9603°N, 11.3653°E)
Time: 13:35:29
(UTC+01:00)

Transit 2A Rocket - Pass Details

Date: 08 December 2020
Orbit: 592 x 910 km, 66.7° (Epoch: 21 January)

Event Time Altitude Azimuth Distance (km) Brightness Sun altitude
Rises 08:28:06 0° 324° (NW) 3,127 7.5 4.0°
Reaches altitude 10° 08:30:33 10° 324° (NW) 2,152 6.7 4.3°
Maximum altitude 08:35:24 83° 237° (WSW) 659 4.8 4.9°
Drops below altitude 10° 08:39:51 10° 150° (SSE) 1,978 9.0 5.5°
Sets 08:42:01 0° 149° (SSE) 2,853 9.8 5.7°
